星链-34093 (STARLINK-34093)

导读

STARLINK-34093是美国于2025年5月14日发射的星链卫星,星链是SpaceX打造的低轨卫星互联网星座,计划发射数万颗卫星覆盖全球。这类卫星为偏远地区提供网络接入服务,也支持星链直连手机等服务,不过也引发了天文观测、太空碎片等争议。

Basic Information
目录编号:
64015
目录名称:
STARLINK-34093
国际标识:
2025-101X
轨道中心:
EARTH
卫星名称:
星链-34093
卫星全名:
星链-34093 (STARLINK-34093)
卫星状态:
在轨 (已飞行478 天)
发射日期:
2025-05-14 UTC
国别 :
美国 (US)
星等 :
--
Orbit Information
数据来源 国际轨道数据
星历时间: 2026-09-04T13:38:51+0800
7小时前
查看轨道信息
半长轴: 6861.165km
偏心率: 0.0001915
轨道倾角: 43.006°
近地点辐角 282.509°
升交点赤经 69.440°
平近点角 77.555°
近地点: 481.714km
远地点: 484.342km
周期: 94.266分钟
每日圈数: 15.275873
Detailed Information
固有亮度:
5
最大亮度:
2.5
卫星平台:
Starlink V1.0
覆盖范围:
全球
运营商:
太空探索技术公司
运营商所在国:
美国
制造商(研发单位):
太空探索技术公司
制造商所在国:
美国
使用方式:
暂无
Satellite Introduction
Starlink 计划是 SpaceX 推出的全球卫星互联网项目,通过发射低轨道卫星,为全球尤其是偏远地区提供高速、低延迟的互联网服务。自 2019 年起,Starlink 已部署数千颗卫星,旨在缩小全球数字鸿沟,推动互联网普及。该项目还为军事、航空等行业提供通信支持,带来广泛经济效益。
2D Orbit Map
3D Orbit Map
Orbit Altitude Analysis Chart
Orbit Inclination Analysis Chart
Orbit Comprehensive Analysis Chart
View Comprehensive Chart
Conjunction Data List
Event ID Objects TCA Miss Dist (km) Collision Risk Probability Collision Risk Index (CRI) Action
CDM_260906-161105-840206-401521
2026-09-06T
16:11:28+0000
0.511 km
远距离
9.935808E-5 中风险 0.75